Regional Weather Roundup
Issued by NWS

Home | Current Version | Previous Version | Text Only | Print | Product List | Glossary Off
Versions: 1 2 3 4 5 6 7 8 9 10 11 12 13 14 15 16 17 18 19 20 21 22 23 24 25 26 27 28 29 30 31 32 33 34 35 36 37 38 39 40 41 42 43 44 45 46 47 48 49 50

000
ASUS43 KLOT 301404
RWRIL

ILLINOIS REGIONAL WEATHER ROUNDUP
NATIONAL WEATHER SERVICE CHICAGO/ROMEOVILLE IL
900 AM CDT TUE AUG 30 2016

NOTE: "FAIR" INDICATES FEW OR NO CLOUDS BELOW 12,000 FEET WITH NO
SIGNIFICANT WEATHER AND/OR OBSTRUCTIONS TO VISIBILITY.

* THESE STATIONS ARE NOT UNDER NWS QUALITY CONTROL. THEY ALSO MAY NOT
  REPORT WEATHER SUCH AS PRECIPITATION OR FOG.

ILZ001-002-007-009-015-016-024-301500-
NORTHWEST ILLINOIS

CITY           SKY/WX    TMP DP  RH WIND       PRES   REMARKS
MOLINE         CLOUDY    72  69  90 SE6       30.15S
STERLING*      RAIN      69  68  96 E6        30.14F FOG
SAVANNA*       CLOUDY    71  70  97 CALM      30.15F FOG
$$

ILZ003-004-008-010-011-017-018-301500-
NORTH CENTRAL ILLINOIS

CITY           SKY/WX    TMP DP  RH WIND       PRES   REMARKS
ROCKFORD       LGT RAIN  71  68  90 S6        30.17F
FREEPORT*      CLOUDY    69  68  98 CALM      30.17F FOG
ROCHELLE*      CLOUDY    69  68  97 CALM      30.17S
$$

ILZ005-006-012>014-019>023-301500-
NORTHEAST ILLINOIS

CITY           SKY/WX    TMP DP  RH WIND       PRES   REMARKS
CHICAGO-OHARE  LGT RAIN  73  70  90 E3        30.13F
CHICAGO-MIDWAY LGT RAIN  76  74  93 CALM      30.12F
AURORA         CLOUDY    72  69  90 SW3       30.16S
LANSING*       LGT RAIN  73  73 100 CALM      30.13F
JOLIET*        CLOUDY    72  72  98 W5        30.15R FOG
WAUKEGAN       CLOUDY    74  70  87 SW5       30.14S
DUPAGE AIRPORT CLOUDY    72  69  90 W3        30.15S
KANKAKEE*      LGT RAIN  70  70  98 CALM      30.14F
WHEELING       CLOUDY    73  70  90 CALM      30.14F
MORRIS*        CLOUDY    71  71  97 CALM      30.14R
ROMEOVILLE*    LGT RAIN  71  71 100 NW5       30.15R
$$

LMZ740>746-301500-
SOUTHERN LAKE MICHIGAN

STATION/POSITION SKY/WX   TEMP    WIND        PRES    VSBY  WAVE
                          AIR SEA DIR/SP/G                  HT/PER
                          (F)     (DEG/KT/KT) (MB)    (MI)  (FT/S)
SOUTHERN BUOY              75 76  160/ 14/ 16 1020.0          0
WILMETTE HARBOR            73 75  160/  8/ 10   N/A           1
HARRISON CRIB              73      40/ 10/ 10   N/A
BURNHAM HARBOR             73      80/  6/ 10   N/A
CALUMET HARBOR             74     150/  4/  4 1020.5S
BURNS HARBOR               73     110/  2/  7 1021.7S
MICHIGAN CITY              73     120/  6/  7   N/A
MICHIGAN CITY 6N           72 73  140/  6/  6   N/A           1/ 3
ST. JOSEPH                 70 69   50/ 12/ 16 1021.3R         1
$$

ILZ025>027-034>036-040-047-049-050-058-095>099-301500-
WEST-CENTRAL ILLINOIS

CITY           SKY/WX    TMP DP  RH WIND       PRES   REMARKS
QUINCY         CLOUDY    75  72  90 N8        30.16R FOG
GALESBURG*     PTSUNNY   72  69  90 SE6       30.18R
MACOMB*        CLOUDY    72  72  98 E5        30.19S
JACKSONVILLE*  CLOUDY    75  73  95 N7        30.15S THUNDER FOG
PITTSFIELD*    MOSUNNY   78  74  88 CALM      30.16S HX  81
$$

ILZ028>032-037-038-041>044-048-051>054-059>061-301500-
CENTRAL ILLINOIS

CITY           SKY/WX    TMP DP  RH WIND       PRES   REMARKS
PONTIAC        CLOUDY    71  71 100 CALM      30.18S
BLOOMINGTON    CLOUDY    71  68  90 NE12      30.19S
DECATUR        MOSUNNY   78  73  84 NE10      30.16S HX  81
PEORIA         TSTM      70  70 100 NE7       30.18F FOG
LACON*         HVY RAIN  69  68  96 S3        30.18F
LINCOLN*       CLOUDY    75  72  89 NE7       30.18R THUNDER
SPRINGFIELD    MOSUNNY   79  74  84 NE9       30.15S HX  82
TAYLORVILLE    SUNNY     79  74  85 CALM      30.14F HX  82
$$

ILZ033-039-045-046-055>057-062-063-301500-
EAST-CENTRAL ILLINOIS

CITY           SKY/WX    TMP DP  RH WIND       PRES   REMARKS
CHAMPAIGN      SUNNY     75  69  81 N13       30.17S
MATTOON        SUNNY     78  72  81 SE3       30.14F HX  80
PARIS*         SUNNY     78  75  89 CALM      30.16F HX  81
$$

ILZ079-100>102-301500-
SOUTHWEST ILLINOIS

CITY           SKY/WX    TMP DP  RH WIND       PRES   REMARKS
ALTON          MOSUNNY   77  73  88 CALM      30.14F
BELLEVILLE     SUNNY     81  76  86 VRB1      30.12F HX  87
CAHOKIA*       SUNNY     81  72  74 CALM      30.13S HX  85
SPARTA*        SUNNY     79  74  85 CALM      30.14F HX  82
$$

ILZ064>066-069>071-074>076-080>082-084>086-088>090-092>094-301500-
SOUTH-CENTRAL ILLINOIS

CITY           SKY/WX    TMP DP  RH WIND       PRES   REMARKS
CARBONDALE     SUNNY     79  73  82 CALM      30.13S HX  82
EFFINGHAM*     SUNNY     79  75  89 CALM      30.16F HX  83
MARION         SUNNY     79  73  83 CALM      30.14S HX  82
MT. VERNON     SUNNY     79  70  73 CALM      30.14F HX  81
CENTRALIA*     SUNNY     79  75  89 CALM      30.13F HX  82
SALEM*         SUNNY     81  73  75 CALM      30.14F HX  86
METROPOLIS*    SUNNY     81  73  77 CALM      30.12S HX  86
$$

ILZ067-068-072-073-078-083-087-091-301500-
SOUTHEAST ILLINOIS

CITY           SKY/WX    TMP DP  RH WIND       PRES   REMARKS
LAWRENCEVILLE  SUNNY     80  78  94 VRB3      30.14S HX  88
FLORA*         SUNNY     80  74  83 CALM      30.14F HX  84
FAIRFIELD*     SUNNY     79  74  83 CALM      30.13S HX  82
HARRISBURG*    SUNNY     79  74  85 CALM      30.13F HX  83
ROBINSON*      SUNNY     78  74  87 E3        30.15S HX  80
CARMI*         SUNNY     79  75  85 CALM      30.13S HX  83
$$

ABBREVIATIONS USED IN REMARKS
   TC - TEMPERATURE IN CELSIUS
  WCI - WIND CHILL INDEX
   HX - HEAT INDEX
  VSB - VISIBILITY
$$




USA.gov is the U.S. government's official web portal to all federal, state and local government web resources and services.